| time (UTC) | temp C | wind direction | speed KPH | gust KPH | rain 1hr cm | rain 24hr cm | rain mn cm | humidity % | barometer mb |
| 20260905111244 | 17 | 269 | 3.2 | 9.7 | 0.00 | 0.48 | 2.95 | 51 | 1016.3 |
| 20260905110342 | 18 | 255 | 6.4 | 12.9 | 0.00 | 0.48 | 2.95 | 52 | 1016.2 |
| 20260905105442 | 18 | 203 | 4.8 | 12.9 | 0.00 | 0.48 | 2.95 | 53 | 1016.2 |
| 20260905104544 | 18 | 269 | 8.0 | 16.1 | 0.00 | 0.51 | 2.95 | 57 | 1016.0 |
| 20260905103642 | 17 | 313 | 6.4 | 12.9 | 0.00 | 0.51 | 2.95 | 60 | 1016.1 |
| 20260905102742 | 16 | 286 | 6.4 | 16.1 | 0.00 | 0.51 | 2.95 | 63 | 1016.2 |
| 20260905101842 | 17 | 205 | 6.4 | 12.9 | 0.00 | 0.51 | 2.95 | 66 | 1015.8 |
| 20260905100942 | 16 | 300 | 4.8 | 9.7 | 0.00 | 0.51 | 2.95 | 65 | 1015.9 |
| 20260905100042 | 15 | 348 | 4.8 | 12.9 | 0.00 | 0.51 | 2.95 | 64 | 1015.7 |
| 20260905095142 | 17 | 242 | 6.4 | 16.1 | 0.00 | 0.51 | 2.95 | 65 | 1015.5 |
| 20260905094242 | 17 | 246 | 4.8 | 12.9 | 0.00 | 0.51 | 2.95 | 65 | 1015.3 |
| 20260905093342 | 16 | 280 | 8.0 | 12.9 | 0.00 | 0.51 | 2.95 | 70 | 1015.3 |
| 20260905091542 | 16 | 323 | 6.4 | 12.9 | 0.00 | 0.53 | 2.95 | 72 | 1015.4 |
| 20260905090642 | 15 | 285 | 6.4 | 14.5 | 0.00 | 0.53 | 2.95 | 72 | 1015.2 |
| 20260905085742 | 15 | 282 | 8.0 | 14.5 | 0.00 | 0.53 | 2.95 | 72 | 1015.0 |
| 20260905084842 | 14 | 285 | 8.0 | 17.7 | 0.00 | 0.53 | 2.95 | 72 | 1015.1 |
| 20260905083942 | 15 | 300 | 11.3 | 29.0 | 0.00 | 0.53 | 2.95 | 73 | 1014.8 |
| 20260905083042 | 15 | 280 | 9.7 | 17.7 | 0.00 | 0.53 | 2.95 | 77 | 1014.7 |
| 20260905080342 | 14 | 289 | 8.0 | 16.1 | 0.00 | 0.53 | 2.95 | 81 | 1014.4 |
| 20260905075444 | 14 | 301 | 8.0 | 17.7 | 0.03 | 0.53 | 2.95 | 81 | 1014.3 |
| 20260905074542 | 13 | 291 | 9.7 | 16.1 | 0.13 | 0.53 | 2.95 | 81 | 1014.2 |
| 20260905073642 | 13 | 292 | 9.7 | 17.7 | 0.15 | 0.53 | 2.95 | 81 | 1014.1 |
| 20260905072742 | 13 | 280 | 9.7 | 17.7 | 0.15 | 0.53 | 2.95 | 82 | 1014.2 |
| 20260905071842 | 12 | 307 | 9.7 | 17.7 | 0.15 | 0.53 | 2.95 | 81 | 1014.2 |
| 20260905070942 | 12 | 287 | 8.0 | 17.7 | 0.15 | 0.53 | 2.95 | 81 | 1014.0 |
| 20260905070042 | 12 | 277 | 3.2 | 6.4 | 0.00 | 0.53 | 2.95 | 81 | 1013.8 |
| 20260905065142 | 12 | 282 | 8.0 | 17.7 | 0.00 | 0.48 | 2.92 | 81 | 1013.9 |
| 20260905064244 | 12 | 257 | 4.8 | 14.5 | 0.00 | 0.43 | 2.92 | 81 | 1013.8 |
| 20260905063342 | 12 | 297 | 8.0 | 14.5 | 0.00 | 0.38 | 2.92 | 81 | 1013.4 |
| 20260905062442 | 12 | 223 | 4.8 | 12.9 | 0.00 | 0.38 | 2.92 | 80 | 1013.4 |
| 20260905061542 | 12 | 282 | 4.8 | 9.7 | 0.00 | 0.38 | 2.92 | 83 | 1013.5 |
| 20260904231226 | 13 | 290 | 12.9 | 22.5 | 0.05 | 0.00 | 0.00 | 72 | 1024.6 |
| 20260904230326 | 13 | 278 | 14.5 | 27.4 | 0.05 | 0.00 | 0.00 | 72 | 1024.5 |
| 20260904225426 | 13 | 310 | 12.9 | 25.7 | 0.05 | 0.00 | 2.97 | 72 | 1024.5 |
| 20260904223626 | 13 | 298 | 14.5 | 24.1 | 0.03 | 0.18 | 2.97 | 71 | 1024.2 |
| 20260904222726 | 13 | 311 | 16.1 | 30.6 | 0.00 | 0.15 | 2.95 | 71 | 1023.9 |
| 20260904221826 | 13 | 285 | 16.1 | 27.4 | 0.00 | 0.15 | 2.95 | 70 | 1023.8 |
| 20260904220026 | 13 | 283 | 14.5 | 30.6 | 0.00 | 0.15 | 2.95 | 71 | 1023.6 |
| 20260904215126 | 13 | 281 | 12.9 | 25.7 | 0.00 | 0.15 | 2.95 | 71 | 1023.6 |
| 20260904214226 | 12 | 291 | 12.9 | 25.7 | 0.00 | 0.15 | 2.95 | 71 | 1023.4 |
| 20260904213326 | 12 | 315 | 19.3 | 38.6 | 0.00 | 0.18 | 2.95 | 71 | 1023.6 |
| 20260904212426 | 13 | 291 | 16.1 | 38.6 | 0.00 | 0.18 | 2.95 | 71 | 1023.4 |
| 20260904211526 | 13 | 289 | 16.1 | 33.8 | 0.00 | 0.18 | 2.95 | 71 | 1023.4 |
| 20260904210626 | 13 | 297 | 16.1 | 33.8 | 0.00 | 0.18 | 2.95 | 70 | 1023.1 |
| 20260904205726 | 13 | 308 | 14.5 | 27.4 | 0.00 | 0.18 | 2.95 | 70 | 1023.0 |
| 20260904204826 | 13 | 295 | 12.9 | 27.4 | 0.00 | 0.18 | 2.95 | 70 | 1022.9 |
| 20260904203926 | 13 | 304 | 12.9 | 24.1 | 0.00 | 0.18 | 2.95 | 70 | 1022.8 |
| 20260904203026 | 13 | 287 | 12.9 | 24.1 | 0.03 | 0.18 | 2.95 | 70 | 1022.7 |
| 20260904202126 | 13 | 279 | 12.9 | 24.1 | 0.03 | 0.18 | 2.95 | 70 | 1022.8 |
| 20260904201226 | 13 | 284 | 12.9 | 24.1 | 0.03 | 0.18 | 2.95 | 70 | 1022.8 |
| 20260904200326 | 13 | 293 | 14.5 | 27.4 | 0.03 | 0.18 | 2.95 | 70 | 1022.6 |
| 20260904195426 | 13 | 303 | 14.5 | 24.1 | 0.03 | 0.18 | 2.95 | 70 | 1022.6 |
| 20260904194526 | 13 | 296 | 16.1 | 27.4 | 0.03 | 0.18 | 2.95 | 69 | 1022.5 |
| 20260904192726 | 14 | 309 | 14.5 | 25.7 | 0.00 | 0.15 | 2.95 | 64 | 1022.4 |
| 20260904191826 | 14 | 270 | 12.9 | 22.5 | 0.00 | 0.15 | 2.95 | 64 | 1022.1 |
| 20260904190926 | 14 | 298 | 12.9 | 29.0 | 0.00 | 0.15 | 2.95 | 63 | 1022.1 |
| 20260904190026 | 15 | 285 | 16.1 | 27.4 | 0.00 | 0.15 | 2.95 | 63 | 1022.0 |
| 20260904185126 | 15 | 281 | 16.1 | 27.4 | 0.00 | 0.18 | 2.95 | 64 | 1022.0 |
| 20260904184226 | 15 | 273 | 14.5 | 25.7 | 0.00 | 0.18 | 2.95 | 65 | 1021.8 |
| 20260904183326 | 15 | 295 | 14.5 | 27.4 | 0.00 | 0.18 | 2.95 | 66 | 1021.6 |
| 20260904182426 | 15 | 289 | 14.5 | 24.1 | 0.00 | 0.18 | 2.95 | 67 | 1021.6 |
| 20260904181526 | 15 | 320 | 14.5 | 27.4 | 0.00 | 0.18 | 2.95 | 66 | 1021.6 |
| 20260904180626 | 15 | 279 | 14.5 | 29.0 | 0.00 | 0.18 | 2.95 | 65 | 1021.6 |
| 20260904175726 | 15 | 273 | 14.5 | 27.4 | 0.00 | 0.18 | 2.95 | 65 | 1021.3 |
| 20260904174826 | 15 | 281 | 12.9 | 24.1 | 0.00 | 0.18 | 2.95 | 64 | 1021.3 |
| 20260904173926 | 15 | 279 | 14.5 | 27.4 | 0.00 | 0.18 | 2.95 | 63 | 1021.1 |
| 20260904173026 | 15 | 304 | 17.7 | 32.2 | 0.00 | 0.18 | 2.95 | 62 | 1021.0 |
| 20260904172126 | 15 | 313 | 16.1 | 32.2 | 0.03 | 0.18 | 2.95 | 61 | 1021.2 |
| 20260904171226 | 16 | 304 | 16.1 | 32.2 | 0.03 | 0.18 | 2.95 | 63 | 1020.9 |
| 20260904170326 | 15 | 293 | 14.5 | 25.7 | 0.03 | 0.18 | 2.95 | 68 | 1020.5 |
| 20260904162727 | 14 | 299 | 19.3 | 37.0 | 0.03 | 0.18 | 2.95 | 61 | 1020.8 |
| 20260904161826 | 15 | 309 | 16.1 | 29.0 | 0.00 | 0.15 | 2.95 | 60 | 1020.4 |
| 20260904160926 | 16 | 295 | 11.3 | 24.1 | 0.00 | 0.15 | 2.95 | 60 | 1020.2 |
| 20260904160026 | 16 | 299 | 16.1 | 30.6 | 0.00 | 0.15 | 2.95 | 59 | 1020.1 |
| 20260904155127 | 16 | 289 | 17.7 | 33.8 | 0.00 | 0.15 | 2.95 | 60 | 1019.7 |
| 20260904154227 | 16 | 310 | 17.7 | 27.4 | 0.00 | 0.15 | 2.95 | 60 | 1019.9 |
| 20260904153326 | 15 | 294 | 16.1 | 33.8 | 0.00 | 0.15 | 2.95 | 60 | 1019.6 |
| 20260904152426 | 16 | 334 | 17.7 | 35.4 | 0.00 | 0.15 | 2.95 | 58 | 1019.6 |
| 20260904151527 | 15 | 296 | 22.5 | 37.0 | 0.00 | 0.15 | 2.95 | 58 | 1019.8 |
| 20260904150626 | 16 | 310 | 17.7 | 37.0 | 0.00 | 0.15 | 2.95 | 59 | 1019.8 |
| 20260904145726 | 16 | 284 | 17.7 | 33.8 | 0.00 | 0.15 | 2.95 | 60 | 1019.4 |
| 20260904144826 | 15 | 301 | 16.1 | 25.7 | 0.00 | 0.15 | 2.95 | 60 | 1019.7 |
| 20260904143926 | 16 | 282 | 16.1 | 25.7 | 0.00 | 0.15 | 2.95 | 61 | 1019.4 |
| 20260904142128 | 15 | 264 | 16.1 | 33.8 | 0.00 | 0.15 | 2.95 | 60 | 1019.6 |
| 20260904134528 | 15 | 302 | 16.1 | 25.7 | 0.00 | 0.15 | 2.95 | 66 | 1019.3 |
| 20260904132726 | 15 | 322 | 17.7 | 38.6 | 0.03 | 0.15 | 2.95 | 68 | 1019.0 |
| 20260904131826 | 15 | 311 | 17.7 | 33.8 | 0.03 | 0.15 | 2.95 | 69 | 1018.7 |
| 20260904130927 | 15 | 311 | 19.3 | 33.8 | 0.03 | 0.15 | 2.95 | 70 | 1018.8 |
| 20260904130026 | 15 | 299 | 16.1 | 30.6 | 0.03 | 0.15 | 2.95 | 65 | 1018.6 |
| 20260904125127 | 15 | 291 | 16.1 | 27.4 | 0.03 | 0.15 | 2.95 | 61 | 1018.5 |
| 20260904124226 | 15 | 306 | 16.1 | 29.0 | 0.00 | 0.13 | 2.95 | 56 | 1018.3 |
| 20260904123326 | 16 | 300 | 12.9 | 24.1 | 0.00 | 0.13 | 2.95 | 55 | 1018.0 |
| 20260904122426 | 16 | 304 | 14.5 | 29.0 | 0.00 | 0.13 | 2.95 | 54 | 1017.9 |
| 20260904121526 | 16 | 299 | 14.5 | 24.1 | 0.00 | 0.15 | 2.95 | 53 | 1018.1 |
| 20260904120626 | 16 | 342 | 14.5 | 25.7 | 0.00 | 0.15 | 2.95 | 53 | 1018.2 |
| 20260904113926 | 16 | 313 | 14.5 | 24.1 | 0.03 | 0.15 | 2.95 | 51 | 1017.8 |
| 20260904113026 | 16 | 275 | 17.7 | 33.8 | 0.03 | 0.15 | 2.95 | 49 | 1017.7 |
| 20260904112126 | 17 | 306 | 16.1 | 27.4 | 0.03 | 0.15 | 2.95 | 50 | 1017.5 |